Regional Weather Roundup
Issued by NWS Sterling, VA

Home | Current Version | Previous Version | Graphics & Text | Print | Product List | Glossary On
Versions: 1 2 3 4 5 6 7 8 9 10 11 12 13 14 15 16 17 18 19 20 21 22 23 24 25 26 27 28 29 30 31 32 33 34 35 36 37 38 39 40 41 42 43 44 45 46 47 48 49 50
000
ASUS41 KLWX 201511
RWRLWX

REGIONAL WEATHER ROUNDUP
NATIONAL WEATHER SERVICE BALTIMORE MD/WASHINGTON DC
1100 AM EDT FRI APR 20 2018

Note: "FAIR" indicates few or no clouds below 12,000 feet
with no significant weather and/or obstructions to visibility.
 TC=TEMPERATURE CELSIUS

 * =Non NWS site. Station does not report precipitation (e.g. rain,
    snow, etc.), thunder, or fog.

DCZ001-MDZ009-015-VAZ040>042-051-053>054-201600-
WASHINGTON METRO

CITY           SKY/WX    TMP DP  RH WIND       PRES   REMARKS
WASHINGTON NAT FAIR      49  24  37 NW15G26   30.32R
DULLES         FAIR      48  22  35 NW13G23   30.32R
ANDREWS AFB    FAIR      47  22  37 NW18G26   30.29R
FT BELVOIR     FAIR      49  19  31 NW17G28   30.32R
QUANTICO       FAIR      50  23  34 N21G29    30.34R
COLLEGE PARK*  FAIR      47  23  39 NW9G21    30.30S
LEESBURG*      FAIR      48  27  43 N20G25    30.33R
MANASSAS*      FAIR      49  24  37 NW15G21   30.33S
GAITHERSBURG*  FAIR      48  23  37 N9        30.30R

$$

MDZ006>007-011-014-201600-
BALTIMORE METRO

CITY           SKY/WX    TMP DP  RH WIND       PRES   REMARKS
BWI AIRPORT    FAIR      48  23  37 NW10G26   30.28S
MD SCIENCE CTR   N/A     48  22  35 MISG      30.29R
MARTIN STATE     N/A     48  28  46 NW15G25   30.31R
ANNAPOLIS      FAIR      48  28  46 NW13G21   30.29R
FORT MEADE*    FAIR      46  25  42 NW10G20   30.32R

$$

MDZ012-015-019>023-201600-
MARYLAND EASTERN SHORE

CITY           SKY/WX    TMP DP  RH WIND       PRES   REMARKS
OCEAN CITY     FAIR      47  26  44 N7G22     30.26R
SALISBURY      FAIR      48  27  44 NW15G22   30.28R
BAY BRIDGE AP* FAIR      46  27  46 N12       30.30R
CAMBRIDGE*       N/A    N/A N/A N/A MISG        N/A
EASTON*        MOSUNNY   48  25  40 N13G22    30.33R

$$

MDZ017>025-201600-
SOUTHERN MARYLAND

CITY           SKY/WX    TMP DP  RH WIND       PRES   REMARKS
PATUXENT RIVER FAIR      51  24  34 NW22G28   30.30R
ST INIGOES     FAIR      49  24  37 NW10G22   30.30R
LEONARDTOWN*   FAIR      46  23  39 W7        30.31R

$$

MDZ003>005-201600-
NORTH CENTRAL MARYLAND

CITY           SKY/WX    TMP DP  RH WIND       PRES   REMARKS
FREDERICK*     SUNNY     48  18  29 NW13G21   30.33S
HAGERSTOWN APT FAIR      47  24  40 NW16      30.29S
WESTMINSTER*   FAIR      45  25  45 NW7       30.28R

$$

MDZ501>502-201600-
WESTERN MARYLAND

CITY           SKY/WX    TMP DP  RH WIND       PRES   REMARKS
OAKLAND*       FAIR      32  21  64 NW9G17    30.30R WCI  24
CUMBERLAND*    FAIR      48  21  34 NW14G23   30.39R

$$

VAZ025>031-201600-
SHENANDOAH VALLEY

CITY           SKY/WX    TMP DP  RH WIND       PRES   REMARKS
WINCHESTER*    FAIR      45  23  42 NW9G22    30.34R
FRONT ROYAL*   FAIR      46  21  36 NW9G16    30.33R
LURAY*         FAIR      48  18  29 N17G24    30.33S
NEW MARKET*    FAIR      47  17  29 NE12G17   30.33S
STAUNTON*      FAIR      46  19  33 NW5       30.36S
WAYNESBORO*    FAIR      46  18  32 NW8       30.34R

$$

WVZ021-048>050-054>055-201600-
EASTERN WEST VIRGINIA PANHANDLE

CITY           SKY/WX    TMP DP  RH WIND       PRES   REMARKS
MARTINSBURG    FAIR      48  21  34 NW15G26   30.30S
PETERSBURG*    FAIR      46  20  35 NW21G28   30.36R

$$

VAZ036>039-050-201600-
CENTRAL FOOTHILLS

CITY           SKY/WX    TMP DP  RH WIND       PRES   REMARKS
CHARLOTTESVILL FAIR      51  18  27 NW9G21    30.34R
CULPEPER*      FAIR      51  18  26 N15G21    30.34F
ORANGE*        FAIR      50  19  29 N8        30.33F
GORDONSVILLE*  FAIR      49  19  30 W7        30.33S
WARRENTON*     FAIR      51  18  26 NW15      30.33S

$$

VAZ055>057-201600-
NORTH AND CENTRAL PIEDMONT

CITY           SKY/WX    TMP DP  RH WIND       PRES   REMARKS
FREDERICKSBRG* FAIR      50  25  37 NW14G25   30.33S
STAFFORD*      FAIR      51  23  34 NW16G23   30.37S

$$

NCZ024-NYZ072-PAZ021-071-VAZ022-071-201600-
OTHER REGIONAL OBSERVATIONS

CITY           SKY/WX    TMP DP  RH WIND       PRES   REMARKS
NEW YORK CITY  FAIR      42  22  44 VRB5G20   30.19R
PHILADELPHIA   FAIR      44  21  40 NW12      30.25R
PITTSBURGH     FAIR      42  24  49 NW12G20   30.40R
ROANOKE        FAIR      51  18  27 N9        30.38R
RICHMOND       FAIR      51  19  28 NW18G25   30.33S
RALEIGH        FAIR      54  31  41 VRB6      30.36R

$$

ANZ530>537-201600-
MARINE OBSERVATIONS

STATION/POSITION TIME  TEMP    WIND        PRES
                       AIR SEA DIR/SP/G
                 (UTC) (F)     (DEG/KT/KT) (MB)
THOMAS PT LIGHT  1500   43 49  340/  7/ 10 1026.9R
BALT KEY BRIDGE  1448   44     310/ 16/ 19 1025.6R
COVE POINT       1448   44     350/ 19/ 23 1026.6R
LEWISETTA        1448   45 53  350/ 13/ 19 1026.6R
SOLOMONS ISLAND  1448   45 52  300/ 14/ 19 1025.9R
PINEY POINT      1448          330/ 16/ 17   N/A

$$




USA.gov is the U.S. government's official web portal to all federal, state and local government web resources and services.